KLM1752 EDDH-EHAM

Flight info

Callsign KLM1752
Flight time 0h 50m
Altitude 30000
Route WSN5G/33 WSN N125 BLUFA
Aircraft E195/M-SDE3GILORVW/S

Departure

Time 2026-04-30 18:50
Airport Hamburg Helmut Schmidt Airport (EDDH)

Arrival

Time 2026-04-30 19:40
Airport Amsterdam Airport Schiphol (EHAM)
Time Latitude Longitude Altitude Speed Heading
2026-04-30 17:39 53.62969 10.00273 48 ft 0 kts 120°
2026-04-30 18:23 53.62974 10.00259 48 ft 2 kts 120°
2026-04-30 18:23 53.62982 10.00235 46 ft 2 kts 122°
2026-04-30 18:23 53.62991 10.00212 45 ft 2 kts 129°
2026-04-30 18:24 53.63014 10.00201 45 ft 1 kts 214°
2026-04-30 18:26 53.63013 10.00200 45 ft 1 kts 212°
2026-04-30 18:27 53.63009 10.00199 45 ft 0 kts 201°
2026-04-30 18:27 53.63008 10.00196 45 ft 0 kts 211°
2026-04-30 18:28 53.63007 10.00196 45 ft 0 kts 211°
2026-04-30 18:30 53.63002 10.00190 43 ft 2 kts 211°
2026-04-30 18:31 53.62980 10.00167 46 ft 5 kts 212°
2026-04-30 18:31 53.62899 10.00081 46 ft 7 kts 213°
2026-04-30 18:32 53.62890 10.00071 47 ft 0 kts 213°
2026-04-30 18:36 53.62882 10.00060 47 ft 3 kts 219°
2026-04-30 18:36 53.62872 10.00043 46 ft 0 kts 230°
2026-04-30 18:40 53.62872 10.00042 47 ft 1 kts 231°
2026-04-30 18:40 53.62867 10.00031 47 ft 2 kts 236°
2026-04-30 18:40 53.62858 10.00005 45 ft 3 kts 241°
2026-04-30 18:41 53.62851 9.99982 47 ft 1 kts 242°
2026-04-30 18:41 53.62845 9.99962 47 ft 0 kts 243°
2026-04-30 18:47 53.62845 9.99960 45 ft 1 kts 243°
2026-04-30 18:47 53.62840 9.99944 46 ft 2 kts 243°
2026-04-30 18:47 53.62829 9.99909 47 ft 5 kts 243°
2026-04-30 18:47 53.62809 9.99843 48 ft 7 kts 244°
2026-04-30 18:48 53.62831 9.99774 48 ft 7 kts 327°
2026-04-30 18:48 53.62864 9.99744 48 ft 3 kts 333°
2026-04-30 18:48 53.62868 9.99740 48 ft 0 kts 333°
2026-04-30 18:49 53.62993 9.99635 47 ft 58 kts 333°
2026-04-30 18:49 53.63582 9.99128 52 ft 130 kts 333°
2026-04-30 18:49 53.64557 9.98276 229 ft 178 kts 334°
2026-04-30 18:50 53.65794 9.97225 638 ft 220 kts 335°
2026-04-30 18:50 53.67163 9.95980 1783 ft 215 kts 332°
2026-04-30 18:50 53.68482 9.94741 2916 ft 225 kts 332°
2026-04-30 18:50 53.69906 9.93463 3835 ft 237 kts 332°
2026-04-30 18:51 53.71179 9.91508 4431 ft 267 kts 300°
2026-04-30 18:51 53.71609 9.88312 4783 ft 301 kts 266°
2026-04-30 18:51 53.71038 9.84724 4895 ft 318 kts 248°
2026-04-30 18:51 53.70240 9.81517 4946 ft 284 kts 246°
2026-04-30 18:52 53.69475 9.78460 4972 ft 279 kts 246°
2026-04-30 18:52 53.68758 9.75464 4992 ft 279 kts 248°
2026-04-30 18:52 53.68074 9.72416 5112 ft 275 kts 249°
2026-04-30 18:52 53.67430 9.69375 5575 ft 278 kts 250°
2026-04-30 18:53 53.66799 9.66267 6026 ft 282 kts 250°
2026-04-30 18:53 53.66158 9.63074 6495 ft 285 kts 248°
2026-04-30 18:53 53.65348 9.60039 6944 ft 288 kts 241°
2026-04-30 18:53 53.64380 9.57057 7383 ft 291 kts 238°
2026-04-30 18:54 53.63324 9.54146 7820 ft 292 kts 236°
2026-04-30 18:54 53.62206 9.51273 8262 ft 294 kts 234°
2026-04-30 18:54 53.61044 9.48419 8719 ft 296 kts 233°
2026-04-30 18:54 53.59857 9.45581 9177 ft 298 kts 232°
2026-04-30 18:55 53.59059 9.43699 9483 ft 299 kts 232°
2026-04-30 18:55 53.57016 9.38927 9852 ft 307 kts 232°
2026-04-30 18:55 53.55769 9.36019 9927 ft 306 kts 232°
2026-04-30 18:56 53.53261 9.30237 9980 ft 306 kts 232°
2026-04-30 18:56 53.52007 9.27359 9989 ft 305 kts 232°
2026-04-30 18:56 53.50754 9.24477 9988 ft 305 kts 232°
2026-04-30 18:57 53.48434 9.19108 10001 ft 260 kts 232°
2026-04-30 18:57 53.47434 9.16776 9988 ft 238 kts 232°
2026-04-30 18:57 53.46512 9.14615 9983 ft 217 kts 231°
2026-04-30 18:58 53.44737 9.10474 10003 ft 242 kts 231°
2026-04-30 18:58 53.43646 9.08000 9987 ft 278 kts 231°
2026-04-30 18:58 53.42446 9.05290 9985 ft 305 kts 231°
2026-04-30 18:59 53.39936 8.99562 10024 ft 302 kts 232°
2026-04-30 19:00 53.36288 8.90936 11352 ft 308 kts 237°
2026-04-30 19:00 53.35233 8.87796 11797 ft 311 kts 241°
2026-04-30 19:00 53.33387 8.81162 12709 ft 318 kts 245°
2026-04-30 19:01 53.31744 8.74261 13631 ft 324 kts 248°
2026-04-30 19:01 53.30953 8.70715 14100 ft 327 kts 248°
2026-04-30 19:02 53.29370 8.63493 14967 ft 333 kts 249°
2026-04-30 19:02 53.27783 8.56181 15848 ft 336 kts 249°
2026-04-30 19:03 53.26258 8.48767 16742 ft 339 kts 251°
2026-04-30 19:03 53.24773 8.41170 17681 ft 343 kts 251°
2026-04-30 19:04 53.23326 8.33585 18629 ft 347 kts 252°
2026-04-30 19:04 53.21870 8.25877 19479 ft 349 kts 252°
2026-04-30 19:05 53.20410 8.18138 20351 ft 350 kts 252°
2026-04-30 19:05 53.18956 8.10453 21234 ft 349 kts 252°
2026-04-30 19:06 53.17499 8.02762 22155 ft 347 kts 252°
2026-04-30 19:06 53.16776 7.98946 22620 ft 345 kts 252°
2026-04-30 19:06 53.15319 7.91256 23355 ft 348 kts 252°
2026-04-30 19:07 53.13852 7.83519 24060 ft 350 kts 252°
2026-04-30 19:07 53.13115 7.79640 24308 ft 353 kts 252°
2026-04-30 19:08 53.11630 7.71838 24885 ft 354 kts 252°
2026-04-30 19:08 53.10129 7.64036 25439 ft 356 kts 252°
2026-04-30 19:08 53.09370 7.60109 25693 ft 357 kts 252°
2026-04-30 19:09 53.07852 7.52284 26196 ft 360 kts 252°
2026-04-30 19:09 53.07073 7.48279 26294 ft 366 kts 252°
2026-04-30 19:09 53.06283 7.44223 26345 ft 373 kts 252°
2026-04-30 19:10 53.04666 7.35932 26382 ft 379 kts 252°
2026-04-30 19:10 53.03033 7.27593 26392 ft 379 kts 252°
2026-04-30 19:11 53.02209 7.23437 26392 ft 379 kts 251°
2026-04-30 19:11 53.00535 7.15118 26386 ft 379 kts 251°
2026-04-30 19:11 52.99694 7.10972 26386 ft 380 kts 251°
2026-04-30 19:12 52.98848 7.06813 26385 ft 380 kts 251°
2026-04-30 19:12 52.98001 7.02658 26377 ft 380 kts 251°
2026-04-30 19:12 52.97164 6.98561 26378 ft 380 kts 251°
2026-04-30 19:13 52.95211 6.90437 26376 ft 379 kts 242°
2026-04-30 19:13 52.92723 6.82742 26372 ft 379 kts 240°
2026-04-30 19:13 52.91437 6.78901 26103 ft 384 kts 239°
2026-04-30 19:14 52.90137 6.75024 25652 ft 383 kts 239°
2026-04-30 19:14 52.88856 6.71193 25224 ft 379 kts 240°
2026-04-30 19:14 52.87593 6.67393 24796 ft 375 kts 240°
2026-04-30 19:14 52.86348 6.63630 24372 ft 371 kts 240°
2026-04-30 19:15 52.85099 6.59837 23948 ft 369 kts 240°
2026-04-30 19:15 52.82688 6.52485 22977 ft 363 kts 240°
2026-04-30 19:15 52.81490 6.48822 22495 ft 361 kts 239°
2026-04-30 19:16 52.80302 6.45188 22026 ft 359 kts 239°
2026-04-30 19:16 52.79120 6.41564 21559 ft 357 kts 239°
2026-04-30 19:16 52.76778 6.34386 20653 ft 353 kts 239°
2026-04-30 19:17 52.75607 6.30800 20210 ft 365 kts 239°
2026-04-30 19:17 52.73010 6.22915 19311 ft 414 kts 239°
2026-04-30 19:17 52.71606 6.18657 18810 ft 424 kts 239°
2026-04-30 19:18 52.69740 6.12976 18086 ft 420 kts 239°
2026-04-30 19:18 52.67447 6.05993 17178 ft 413 kts 239°
2026-04-30 19:18 52.66080 6.01838 16636 ft 410 kts 238°
2026-04-30 19:19 52.64730 5.97739 16112 ft 406 kts 238°
2026-04-30 19:19 52.63382 5.93659 15592 ft 403 kts 238°
2026-04-30 19:19 52.60719 5.85616 14584 ft 397 kts 238°
2026-04-30 19:20 52.59403 5.81658 14089 ft 394 kts 238°
2026-04-30 19:20 52.58089 5.77714 13535 ft 391 kts 238°
2026-04-30 19:20 52.55494 5.69947 12456 ft 384 kts 238°
2026-04-30 19:21 52.54248 5.66211 11937 ft 361 kts 238°
2026-04-30 19:21 52.51941 5.59340 10910 ft 326 kts 234°
2026-04-30 19:22 52.49212 5.54033 10472 ft 296 kts 219°
2026-04-30 19:22 52.43836 5.49621 10060 ft 286 kts 198°
2026-04-30 19:23 52.38344 5.45846 9616 ft 285 kts 202°
2026-04-30 19:24 52.36309 5.41572 9386 ft 303 kts 256°
2026-04-30 19:24 52.36197 5.38100 9102 ft 309 kts 269°
2026-04-30 19:24 52.36438 5.31136 8188 ft 304 kts 272°
2026-04-30 19:25 52.36945 5.20916 7437 ft 298 kts 272°
2026-04-30 19:26 52.37298 5.14162 7359 ft 298 kts 272°
2026-04-30 19:26 52.37655 5.07410 7326 ft 298 kts 272°
2026-04-30 19:26 52.37728 5.04033 7323 ft 297 kts 265°
2026-04-30 19:27 52.37513 4.97291 7318 ft 296 kts 263°
2026-04-30 19:27 52.37217 4.90583 7324 ft 296 kts 262°
2026-04-30 19:28 52.37068 4.87247 7321 ft 282 kts 262°
2026-04-30 19:28 52.36812 4.81158 7322 ft 266 kts 262°
2026-04-30 19:29 52.36566 4.75090 7317 ft 265 kts 262°
2026-04-30 19:29 52.36446 4.72118 7318 ft 265 kts 262°
2026-04-30 19:30 52.34795 4.63669 6262 ft 255 kts 242°
2026-04-30 19:30 52.33392 4.58350 5369 ft 253 kts 241°
2026-04-30 19:31 52.32037 4.53244 4466 ft 240 kts 241°
2026-04-30 19:31 52.31378 4.50749 4011 ft 238 kts 240°
2026-04-30 19:31 52.30090 4.45790 3106 ft 237 kts 241°
2026-04-30 19:32 52.29444 4.43293 2640 ft 239 kts 241°
2026-04-30 19:32 52.28789 4.40789 2295 ft 239 kts 239°
2026-04-30 19:32 52.27771 4.38869 2146 ft 208 kts 199°
2026-04-30 19:32 52.26539 4.38657 2080 ft 163 kts 156°
2026-04-30 19:33 52.25479 4.39277 2033 ft 161 kts 153°
2026-04-30 19:33 52.24436 4.39943 2022 ft 161 kts 152°
2026-04-30 19:33 52.23401 4.40623 2005 ft 160 kts 152°
2026-04-30 19:33 52.22370 4.41317 1996 ft 159 kts 150°
2026-04-30 19:34 52.21661 4.42568 2010 ft 156 kts 105°
2026-04-30 19:34 52.21615 4.44364 2000 ft 159 kts 94°
2026-04-30 19:34 52.20896 4.47412 1993 ft 162 kts 154°
2026-04-30 19:35 52.19780 4.47803 1961 ft 161 kts 152°
2026-04-30 19:35 52.19163 4.49150 1950 ft 157 kts 96°
2026-04-30 19:35 52.19688 4.50738 2081 ft 177 kts 45°
2026-04-30 19:35 52.20773 4.51763 2292 ft 178 kts 45°
2026-04-30 19:36 52.21622 4.53178 2523 ft 174 kts 57°
2026-04-30 19:36 52.22364 4.54571 2757 ft 167 kts 58°
2026-04-30 19:36 52.23603 4.57059 2702 ft 129 kts 73°
2026-04-30 19:37 52.23946 4.58308 2461 ft 115 kts 78°
2026-04-30 19:37 52.24242 4.59530 2270 ft 113 kts 80°
2026-04-30 19:37 52.24490 4.60705 2104 ft 109 kts 81°
2026-04-30 19:37 52.24794 4.61903 1849 ft 113 kts 77°
2026-04-30 19:38 52.25092 4.63071 1670 ft 112 kts 79°
2026-04-30 19:38 52.25387 4.64220 1507 ft 113 kts 72°
2026-04-30 19:38 52.25797 4.65333 1365 ft 115 kts 70°
2026-04-30 19:38 52.26212 4.66463 1189 ft 115 kts 69°
2026-04-30 19:39 52.26600 4.67593 982 ft 113 kts 69°
2026-04-30 19:39 52.26993 4.68731 831 ft 117 kts 63°
2026-04-30 19:39 52.27440 4.69854 587 ft 115 kts 62°
2026-04-30 19:39 52.27886 4.70985 436 ft 122 kts 63°
2026-04-30 19:40 52.28327 4.72168 258 ft 124 kts 63°
2026-04-30 19:40 52.28773 4.73307 62 ft 115 kts 62°
2026-04-30 19:40 52.29147 4.74340 3 ft 87 kts 61°
2026-04-30 19:40 52.29281 4.74686 3 ft 0 kts 57°
2026-04-30 19:41 52.29295 4.74721 2 ft 11 kts 57°
2026-04-30 19:41 52.29372 4.74923 -1 ft 28 kts 57°
2026-04-30 19:41 52.29489 4.75229 -2 ft 32 kts 59°
2026-04-30 19:41 52.29635 4.75343 1 ft 21 kts 340°
2026-04-30 19:42 52.29682 4.75301 1 ft 0 kts 329°
2026-04-30 19:45 52.29685 4.75299 1 ft 1 kts 329°
2026-04-30 19:45 52.29690 4.75294 1 ft 1 kts 331°
2026-04-30 19:45 52.29697 4.75289 1 ft 2 kts 339°
2026-04-30 19:45 52.29712 4.75280 1 ft 3 kts 340°
2026-04-30 19:46 52.29724 4.75278 1 ft 2 kts 353°
2026-04-30 19:46 52.29736 4.75276 1 ft 2 kts 355°
2026-04-30 19:46 52.29751 4.75274 2 ft 2 kts 358°
2026-04-30 19:46 52.29766 4.75279 2 ft 2 kts 15°
2026-04-30 19:47 52.29780 4.75289 3 ft 2 kts 26°
2026-04-30 19:47 52.29788 4.75298 3 ft 2 kts 31°
2026-04-30 19:47 52.29814 4.75324 3 ft 5 kts 33°
2026-04-30 19:47 52.29846 4.75364 2 ft 7 kts 42°
2026-04-30 19:48 52.29881 4.75438 1 ft 9 kts 57°
2026-04-30 19:48 52.29915 4.75528 1 ft 9 kts 58°
2026-04-30 19:48 52.29950 4.75620 0 ft 10 kts 58°
2026-04-30 19:48 52.29977 4.75691 -1 ft 11 kts 57°
2026-04-30 19:49 52.30037 4.75846 -2 ft 12 kts 58°
2026-04-30 19:49 52.30118 4.76061 -2 ft 11 kts 58°
2026-04-30 19:49 52.30156 4.76157 0 ft 9 kts 56°
2026-04-30 19:50 52.30188 4.76237 1 ft 8 kts 58°
2026-04-30 19:50 52.30210 4.76294 1 ft 9 kts 58°
2026-04-30 19:50 52.30244 4.76384 1 ft 10 kts 57°
2026-04-30 19:50 52.30279 4.76474 1 ft 9 kts 58°
2026-04-30 19:51 52.30314 4.76570 0 ft 10 kts 56°
2026-04-30 19:51 52.30359 4.76587 -1 ft 5 kts 339°
2026-04-30 19:51 52.30390 4.76558 -1 ft 4 kts 328°
2026-04-30 19:51 52.30417 4.76559 -1 ft 3 kts 34°
2026-04-30 19:52 52.30431 4.76589 -1 ft 3 kts 56°
2026-04-30 19:52 52.30434 4.76598 -1 ft 0 kts 58°
2026-04-30 19:52 52.30435 4.76602 -1 ft 0 kts 58°